Regional Weather Roundup
Issued by NWS Austin/San Antonio, TX

Home | Current Version | Previous Version | Text Only | Print | Product List | Glossary On
Versions: 1 2 3 4 5 6 7 8 9 10 11 12 13 14 15 16 17 18 19 20 21 22 23 24 25 26 27 28 29 30 31 32 33 34 35 36 37 38 39 40 41 42 43 44 45 46 47 48 49 50
000
ASUS44 KEWX 271611
RWREWX
SOUTH TEXAS REGIONAL WEATHER ROUNDUP
NATIONAL WEATHER SERVICE AUSTIN/SAN ANTONIO TX
1100 AM CDT WED MAY 27 2020

NOTE: "FAIR" INDICATED FEW OR NO CLOUDS BELOW 12,000 FEET WITH NO
SIGNIFICANT WEATHER AND/OR OBSTRUCTIONS TO VISIBILITY.

* - THESE STATIONS ARE NOT NWS OR FAA STATIONS...AND ARE NOT SUBJECT
    TO NWS AND FAA QUALITY CONTROL.

TXZ171-172-183>190-271700-
TEXAS HILL COUNTRY AND EDWARDS PLATEAU

CITY           SKY/WX    TMP DP  RH WIND       PRES   REMARKS
JUNCTION       MOSUNNY   82  66  58 SW12      29.93F
*LLANO         MOSUNNY   82  66  57 SW9G16    29.95S
BURNET         SUNNY     79  65  62 SW10G21   29.94S
*HORSESHOE BAY NOT AVBL
*LAGO VISTA    MOSUNNY   80  68  65 SW9G17    29.93F
*KERRVILLE     MOSUNNY   79  68  68 SW13G20   29.95F
*FREDERICKSBRG SUNNY     78  65  65 SW12      29.95S
*ROCKSPRINGS     N/A     79  61  53 SW13G21   30.01F
*BOERNE        MOSUNNY   77  66  69 SW10G18   29.95F
HONDO          MOSUNNY   82  69  64 SW12      29.93F
*UVALDE          N/A     81  71  69 S9        29.94F
DEL RIO        SUNNY     88  65  46 S15       29.88F HX  90
*LAUGHLIN AFB  SUNNY     85  66  52 SE15      29.89F
*SPOFFORD      NOT AVBL
*EAGLE PASS    SUNNY     86  68  54 S10G16    29.91F
CARRIZO SPRGS  SUNNY     82  68  61 S10G17    29.90F
$$

TXZ173-191>194-202-209-217>225-228-271700-
CENTRAL AND SOUTH CENTRAL TEXAS

CITY           SKY/WX    TMP DP  RH WIND       PRES   REMARKS
GEORGETOWN     SUNNY     82  68  62 SW10      29.93S
*TAYLOR        SUNNY     82  69  65 S8        29.91F
AUSTIN/BERGSTM MOSUNNY   84  69  60 SW13G22   29.90F
AUSTIN/MABRY   SUNNY     83  67  58 VRB7G17   29.91F
*PFLUGERVILLE  SUNNY     82  68  61 SW12      29.92S
SAN MARCOS     PTSUNNY   83  72  69 SW14      29.92F
NEW BRAUNFELS  MOSUNNY   82  70  66 S13       29.90F
*RANDOLPH AFB  PTSUNNY   82  70  65 SW7       29.92S
*SEGUIN        CLOUDY    79  71  75 SW9       29.96S
SAN ANTONIO    MOSUNNY   82  69  64 SW12      29.92F
STINSON FIELD  MOSUNNY   81  70  69 SW12      29.90F
*KELLY FIELD   MOSUNNY   83  70  64 SW9       29.90F
*PLEASANTON    MOSUNNY   85  72  65 SW6       29.92S HX  90
*KENEDY        SUNNY     84  71  64 SW7       29.92S
*LA GRANGE     SUNNY     84  71  66 S8        29.89S
*GIDDINGS      SUNNY     76  64  67 SW6       29.92F
*GONZALES      SUNNY     83  72  69 SW9       29.91S
$$

TXZ163>164-176>182-195>201-210>213-226-227-235-271700-
SOUTHEAST TEXAS

CITY           SKY/WX    TMP DP  RH WIND       PRES   REMARKS
COLLEGE STN    SUNNY     80  66  62 VRB6      29.92S
*BRYAN         SUNNY     81  67  61 S7        29.94S
*CALDWELL      SUNNY     80  70  72 S6        29.93S
*CROCKETT      NOT AVBL
*BRENHAM       SUNNY     82  69  63 SW9       29.92F
HUNTSVILLE     SUNNY     81  66  60 CALM      29.92F
CONROE         SUNNY     83  64  52 VRB3      29.93F
HOUSTON BUSH   MOSUNNY   84  63  49 W6        29.91F
HOUSTON HOBBY  MOSUNNY   84  67  56 SW10      29.91S
*HOUSTON SW AP MOSUNNY   81  71  71 W6        29.93S
PEARLAND       MOSUNNY   83  68  60 W6        29.93S
HOUSTON HOOKS  SUNNY     82  64  54 S8        29.92S
ELLINGTON FLD  MOSUNNY   84  68  58 SW7       29.91F
SUGAR LAND     MOSUNNY   82  72  71 W9        29.92S
*HOUSTON EXEC  MOSUNNY   82  72  69 SW9       29.93F
*CLEVELAND MUN SUNNY     82  62  50 W6        29.93F
*WHARTON       PTSUNNY   80  70  72 SW8       29.93F
*COLUMBUS      FAIR      82  70  68 SW6       29.92F
*EAGLE LAKE    MOSUNNY   85  73  67 S7        29.91  HX  91
$$

TXZ214>216-236>238-271700-
THE UPPER TEXAS COAST

CITY           SKY/WX    TMP DP  RH WIND       PRES   REMARKS
*ORANGE        SUNNY     83  66  55 W6        29.94S
PORT ARTHUR    SUNNY     83  67  58 W8        29.91F
GALVESTON      MOSUNNY   84  72  67 S12       29.92S
ANGLETON       MOSUNNY   84  71  65 W8        29.92F
*BAY CITY      MOSUNNY   85  75  72 SW5       29.92F HX  93
PALACIOS       MOSUNNY   84  73  69 S12       29.91F HX  90
$$

TXZ229>234-239>247-271700-
TEXAS COASTAL BEND AND RIO GRANDE PLAINS

CITY           SKY/WX    TMP DP  RH WIND       PRES   REMARKS
VICTORIA       MOSUNNY   85  71  63 S9        29.91F HX  90
*BEEVILLE      SUNNY     85  76  73 S6        29.90F HX  94
ROCKPORT       SUNNY     86  70  58 S7        29.90F HX  90
*PORT ARANSAS  PTSUNNY   82  74  74 S9        29.93S
*PORT LAVACA   MOSUNNY   83  76  77 SW9       29.92F HX  91
*INGLESIDE     SUNNY     84  74  72 S7        29.91S HX  92
CORPUS CHRISTI MOSUNNY   83  76  79 SW7       29.90F HX  91
CORPUS NAS     MOSUNNY   86  75  69 S10       29.90F HX  95
*ROBSTOWN      SUNNY     83  76  80 S8        29.91F HX  90
ALICE          SUNNY     85  71  63 S9        29.90F HX  90
KINGSVILLE NAS MOSUNNY   85  72  65 S8        29.90F HX  91
COTULLA        SUNNY     85  71  63 SW9       29.91S HX  90
LAREDO         SUNNY     83  71  67 S13       29.91F
$$

TXZ248>255-271700-
DEEP SOUTH TEXAS

CITY           SKY/WX    TMP DP  RH WIND       PRES   REMARKS
BROWNSVILLE    MOSUNNY   87  69  54 SE9       29.92S HX  91
PORT ISABEL    SUNNY     85  70  60 SE13      29.92S
HARLINGEN      SUNNY     86  71  60 SE13      29.92S HX  91
*HEBBRONVILLE  SUNNY     82  69  63 S8        29.93S
MCALLEN        SUNNY     85  69  58 SE12      29.93S
*WESLACO       SUNNY     85  68  57 S10       29.92
FALFURRIAS     NOT AVBL
EDINBURG       HAZE      85  68  56 SE9       29.92F VSB<1/4
*ZAPATA        NOT AVBL
$$

TXZ213>215-236>238-242>244-246-247-251-254-255-271700-
CMAN STATIONS

STATION/POSITION TIME  TEMP    WIND        PRES    WAVE
                       AIR SEA DIR/SP/G            HT/PER
                 (UTC) (F)     (DEG/KT/KT) (MB)    (FT/S)
SABINE PASS      1518   82 82  250/  2/  8 1014.8
NORTH JETTY/GLS  1518   80 81  240/  7/  8 1012.0
EAGLE POINT      1530   82 80  250/  5/ 11 1012.6
MORGANS POINT    1530   82 82  250/  5/  9 1013.0
PORT O`CONNOR    1518   80 83  220/  8/ 13 1012.9
PORT ARANSAS     1600   79 81  170/  8/  8 1012.9
MALAQUITE BEACH  1530   79 89  170/  9/ 11 1012.6
BAFFIN BAY       1518   78 83  170/ 10/ 12 1013.2
PORT ISABEL      1530   81 81  140/  8/ 12 1015.1
$$



USA.gov is the U.S. government's official web portal to all federal, state and local government web resources and services.